TimeCST,TemperatureF,Dew PointF,Humidity,Sea Level PressureIn,VisibilityMPH,Wind Direction,Wind SpeedMPH,Gust SpeedMPH,PrecipitationIn,Events,Conditions,WindDirDegrees,DateUTC
12:53 AM,44.1,19.0,37,29.75,10.0,WNW,15.0,23.0,N/A,,Clear,290,2014-01-26 06:53:00
1:53 AM,37.9,19.0,47,29.77,10.0,WNW,10.4,-,N/A,,Clear,300,2014-01-26 07:53:00
2:53 AM,28.9,17.1,61,29.78,10.0,NW,10.4,-,N/A,,Clear,310,2014-01-26 08:53:00
3:53 AM,28.9,18.0,64,29.79,10.0,NW,5.8,-,N/A,,Clear,320,2014-01-26 09:53:00
4:53 AM,26.1,18.0,71,29.79,10.0,NNW,4.6,-,N/A,,Clear,330,2014-01-26 10:53:00
5:53 AM,28.9,19.9,69,29.80,10.0,NW,9.2,-,N/A,,Clear,320,2014-01-26 11:53:00
6:53 AM,30.0,19.9,66,29.81,10.0,NW,11.5,-,N/A,,Clear,320,2014-01-26 12:53:00
7:53 AM,19.9,16.0,85,29.81,10.0,NW,5.8,-,N/A,,Clear,320,2014-01-26 13:53:00
8:53 AM,28.0,21.0,75,29.79,10.0,WNW,3.5,-,N/A,,Clear,300,2014-01-26 14:53:00
9:53 AM,37.9,27.0,65,29.75,10.0,WNW,6.9,-,N/A,,Clear,300,2014-01-26 15:53:00
10:53 AM,48.9,26.1,41,29.75,10.0,West,16.1,-,N/A,,Clear,280,2014-01-26 16:53:00
11:53 AM,57.0,27.0,32,29.73,10.0,NW,23.0,28.8,N/A,,Partly Cloudy,310,2014-01-26 17:53:00
12:53 PM,54.0,27.0,35,29.70,10.0,WNW,17.3,25.3,N/A,,Overcast,300,2014-01-26 18:53:00
1:53 PM,50.0,28.0,43,29.74,10.0,NW,25.3,32.2,N/A,,Overcast,320,2014-01-26 19:53:00
2:53 PM,45.0,28.9,53,29.82,9.0,North,35.7,43.7,N/A,,Overcast,360,2014-01-26 20:53:00
3:07 PM,32.0,26.6,80,29.82,1.8,North,36.8,49.5,0.00,Snow,Light Snow,360,2014-01-26 21:07:00
3:26 PM,30.2,24.8,80,29.86,2.5,North,25.3,39.1,0.00,Snow,Light Snow,10,2014-01-26 21:26:00
3:53 PM,28.9,21.9,75,29.97,6.0,North,24.2,35.7,0.00,Snow,Light Snow,360,2014-01-26 21:53:00
4:53 PM,28.0,15.1,58,30.04,10.0,NNW,25.3,39.1,0.00,,Overcast,340,2014-01-26 22:53:00
5:53 PM,25.0,10.0,53,30.10,10.0,North,25.3,35.7,N/A,,Overcast,360,2014-01-26 23:53:00
6:53 PM,19.9,5.0,52,30.19,10.0,North,18.4,34.5,N/A,,Overcast,360,2014-01-27 00:53:00
7:53 PM,17.1,1.9,52,30.25,10.0,North,18.4,34.5,N/A,,Scattered Clouds,350,2014-01-27 01:53:00
8:53 PM,15.1,-0.0,51,30.26,10.0,North,27.6,36.8,N/A,,Partly Cloudy,360,2014-01-27 02:53:00
9:53 PM,12.9,-4.0,47,30.30,10.0,NNW,13.8,20.7,N/A,,Partly Cloudy,340,2014-01-27 03:53:00
10:53 PM,12.9,-5.1,45,30.32,10.0,NNW,16.1,23.0,N/A,,Scattered Clouds,340,2014-01-27 04:53:00
11:53 PM,12.0,-7.1,42,30.34,10.0,North,20.7,26.5,N/A,,Mostly Cloudy,350,2014-01-27 05:53:00